Weather Roundup
Issued by NWS

Home | Current Version | Previous Version | Graphics & Text | Print | Product List | Glossary Off
Versions: 1 2 3 4 5 6 7 8 9 10 11 12 13 14 15 16 17 18 19 20 21 22 23 24 25 26 27 28 29 30 31 32 33 34 35 36 37 38 39 40 41 42 43 44 45 46 47 48 49 50

598
NZUS93 KARX 161659
HRRWXR

CURRENT HOURLY OBSERVATIONS ACROSS
MUCH OF THE UPPER MISSISSIPPI VALLEY
NATIONAL WEATHER SERVICE LA CROSSE WI
1100 AM CST TUE JAN 16 2018


...SOUTHEAST MINNESOTA...


CITY           SKY/WX    TMP DP  RH WIND       PRES   REMARKS
ROCHESTER      CLOUDY     4   1  88 NW14      30.61S BLWGSNOWWCI -14
ROCHESTER/MAYO CLOUDY     5   1  86 NW8G16    30.63S WCI  -9
WINONA         CLOUDY    10   5  79 N13         N/A  WCI  -5
AUSTIN         NOT AVBL
ALBERT LEA     CLOUDY    -2  -8  78 NW7       30.66R HAZE    WCI -16
DODGE CENTER   CLOUDY     1  -2  85 NW12      30.62S HAZE    WCI -15
PRESTON        LGT SNOW   5   1  81 NW10      30.60S WCI -10
OWATONNA       CLOUDY    -2  -6  84 W10       30.67S WCI -19
FARIBAULT      CLOUDY     0  -6  78 W8        30.68S WCI -15
$$

...ELSEWHERE IN MINNESOTA...


CITY           SKY/WX    TMP DP  RH WIND       PRES   REMARKS
MINNEAPOLIS    FAIR       2  -4  76 NW7       30.69F WCI -11
INTNL FALLS    FAIR      -6 -12  75 W7        30.60F WCI -20
DULUTH         FAIR       1  -2  87 NW8       30.55F WCI -13
RED WING       LGT SNOW   7   0  72 W6        30.67S WCI  -3
REDWOOD FALLS  CLOUDY    -4 -11  72 NW9       30.73S WCI -20
MANKATO        CLOUDY    -3  -9  75 NW10      30.72R HAZE    WCI -20
WORTHINGTON    CLOUDY    -1  -8  72 NW9       30.68S WCI -16
FAIRMONT       CLOUDY    -3  -9  75 NW13      30.71S WCI -22
$$

...SOUTHWEST WISCONSIN...


CITY           SKY/WX    TMP DP  RH WIND       PRES   REMARKS
LA CROSSE      CLOUDY     9   3  77 NW13      30.63F WCI  -7
PRAIRIE DU CHI FAIR      12   3  67 NW8       30.62S WCI   1
BOSCOBEL       CLOUDY    15   7  70 W5        30.61R WCI   8
LONE ROCK      NOT AVBL
PLATTEVILLE    FAIR      12   8  85 NW10      30.56R WCI  -1
FORT MC COY    FLURRIES  10   8  90 W7        30.60S WCI   0
CAMP DOUGLAS   MOSUNNY   14   9  79 NW10      30.55S WCI   1
MAUSTON-NEW LI FAIR      13   8  80 NW13      30.55S WCI  -2
VIROQUA        CLOUDY    10   7  90 NW8       30.54F WCI  -3
WIS DELLS      FAIR      16   9  73 NW5       30.53S WCI   9
$$

...ELSEWHERE IN WISCONSIN...


CITY           SKY/WX    TMP DP  RH WIND       PRES   REMARKS
MILWAUKEE      PTSUNNY   21  11  65 N15       30.46R WCI   8
MADISON        FAIR      16   9  74 N12       30.52S WCI   3
GREEN BAY      FAIR      19   9  65 NW7       30.50F WCI  10
EAU CLAIRE     NOT AVBL
BLACK RVR FLS  FAIR      13   5  70 NW6       30.59S WCI   4
MEDFORD        FAIR      14  10  85 NW7       30.49F WCI   3
WAUSAU         FAIR      17  10  74 N9        30.49S WCI   6
WIS RAPIDS     FAIR      18  10  71 N8        30.53S WCI   8
MARSHFIELD     FAIR      18  11  74 N8        30.50F WCI   8
RICE LAKE      FLURRIES   9   4  81 CALM      30.62R
$$

...NORTHEAST IOWA...


CITY           SKY/WX    TMP DP  RH WIND       PRES   REMARKS
WATERLOO       CLOUDY     5  -2  72 NW14      30.66R WCI -12
DUBUQUE        CLOUDY    10   4  76 N13       30.56S WCI  -5
DECORAH        FLURRIES   7   3  85 NW13      30.59S WCI  -9
MASON CITY     PTSUNNY   -1  -7  75 NW16      30.67S WCI -21
CHARLES CITY   CLOUDY     3  -2  78 NW14G22   30.65R WCI -15
OELWEIN        FAIR       7   3  85 NW15G21   30.62S WCI -11
$$

...ELSEWHERE IN IOWA...


CITY           SKY/WX    TMP DP  RH WIND       PRES   REMARKS
DES MOINES     LGT SNOW   2  -6  69 NW12      30.71S WCI -15
IOWA CITY      CLOUDY     8  -1  66 NW14      30.66R WCI  -8
FORT DODGE     CLOUDY     1  -5  75 NW8       30.70S HAZE    WCI -13
MARSHALLTOWN   CLOUDY     3  -2  79 NW16      30.68R WCI -16
CEDAR RAPIDS   LGT SNOW   7   1  76 NW16      30.62R WCI -11
$$

...NORTHERN ILLINOIS...


CITY           SKY/WX    TMP DP  RH WIND       PRES   REMARKS
CHICAGO-OHARE  FLURRIES  21  14  74 NW15      30.45R WCI   8
CHICAGO-MIDWAY FLURRIES  21  15  78 NW10      30.46R WCI  10
MOLINE         CLOUDY    13   6  74 W12       30.60S WCI  -1
ROCKFORD       PTSUNNY   15   8  73 NW13      30.53R WCI   1
PEORIA         PTSUNNY    5  -2  72 W9        30.60S WCI  -9
$$

NOTE: "FAIR" INDICATES FEW OR NO CLOUDS BELOW 12,000 FEET WITH NO
SIGNIFICANT WEATHER AND/OR OBSTRUCTIONS TO VISIBILITY. WIND
SPEEDS ARE IN MILES-PER-HOUR.




USA.gov is the U.S. government's official web portal to all federal, state and local government web resources and services.